Hourly Data Report for March 13, 2012

HALIFAX STANFIELD INT'L A
NOVA SCOTIA

44°52'48.060" N
63°30'00.050" W
145.40 m
8202250
71395
YHZ

Download Data

Hourly Data (March 2012)
Hourly Data Report for March 13, 2012
TIME Temp Definition
°C
Dew Point Definition
°C
Rel Hum Definition
%
Wind Dir Definition
10's deg

Wind Spd Definition
km/h
Visibility Definition
km
Stn Press Definition
kPa
Hmdx Definition


Wind Chill Definition


Weather Definition


00:00 2.5 -3.7 64 28 9 24.1 100.28     Mainly Clear
01:00 3.2 -4.0 59 28 9 24.1 100.29     Cloudy
02:00 3.5 -3.9 58 27 9 24.1 100.32     Cloudy
03:00 3.2 -3.5 61 27 11 24.1 100.34     Cloudy
04:00 3.8 -3.1 61 31 9 24.1 100.38     Cloudy
05:00 2.6 -3.7 63 35 9 24.1 100.43     Cloudy
06:00 2.0 -4.1 64 2 9 24.1 100.40     Cloudy
07:00 1.9 -5.2 59 4 17 24.1 100.46     Cloudy
08:00 1.4 -5.2 61 4 13 24.1 100.51     Cloudy
09:00 1.7 -7.4 51 5 15 24.1 100.52     Cloudy
10:00 2.7 -8.1 45 3 9 24.1 100.59     Cloudy
11:00 4.4 -8.3 39 5 13 24.1 100.60     Mostly Cloudy
12:00 5.1 -7.9 38 10 13 24.1 100.55     Mostly Cloudy
13:00 5.5 -7.2 39 11 13 24.1 100.48     Cloudy
14:00 6.4 -6.8 38 9 15 24.1 100.40     Cloudy
15:00 6.2 -5.5 43 12 19 24.1 100.37     Cloudy
16:00 4.5 -7.8 40 13 24 24.1 100.35     Cloudy
17:00 3.1 -6.3 50 12 28 24.1 100.35     Cloudy
18:00 1.8 -6.2 55 12 33 24.1 100.38     Cloudy
19:00 0.4 -4.7 69 12 41 24.1 100.28     Cloudy
20:00 0.1 -4.5 71 12 26 24.1 100.29     Cloudy
21:00 0.1 -5.1 68 11 28 24.1 100.34     Cloudy
22:00 -0.7 -2.4 88 11 37 16.1 100.33   -8 Freezing Rain
23:00 -0.8 -2.2 90 9 20 9.7 100.42   -6 Freezing Rain,Fog

Notes on Data Quality.

Legend

  • E = Estimated
  • M = Missing
  • NA = Not Available*
  • [empty] = Indicates an unobserved value
Date modified: